TimeCAT,TemperatureF,Dew PointF,Humidity,Sea Level PressureIn,VisibilityMPH,Wind Direction,Wind SpeedMPH,Gust SpeedMPH,PrecipitationIn,Events,Conditions,WindDirDegrees,DateUTC
12:00 AM,69.8,57.2,64,30.18,-9999.0,East,5.8,-,N/A,,Clear,90,2013-03-04 22:00:00
2:00 AM,68.0,59.0,73,30.18,-9999.0,ENE,8.1,-,N/A,,Clear,70,2013-03-05 00:00:00
3:00 AM,64.4,59.0,83,30.18,-9999.0,SE,4.6,-,N/A,,Clear,130,2013-03-05 01:00:00
4:00 AM,64.4,59.0,83,30.18,-9999.0,ESE,5.8,-,N/A,,Clear,120,2013-03-05 02:00:00
5:00 AM,64.4,59.0,83,30.18,-9999.0,SE,6.9,-,N/A,,Clear,140,2013-03-05 03:00:00
6:00 AM,64.4,59.0,83,30.21,-9999.0,SE,6.9,-,N/A,,Clear,140,2013-03-05 04:00:00
8:00 AM,68.0,60.8,78,30.24,6.2,NE,5.8,-,N/A,,Partly Cloudy,50,2013-03-05 06:00:00
9:00 AM,73.4,60.8,65,30.24,6.2,NE,8.1,-,N/A,,Scattered Clouds,50,2013-03-05 07:00:00
11:00 AM,78.8,59.0,51,30.21,6.2,NE,9.2,-,N/A,,Partly Cloudy,40,2013-03-05 09:00:00
12:00 PM,82.4,59.0,45,30.18,6.2,Variable,6.9,-,N/A,,Partly Cloudy,0,2013-03-05 10:00:00
1:00 PM,84.2,55.4,37,30.15,6.2,NNE,6.9,-,N/A,,Partly Cloudy,30,2013-03-05 11:00:00
2:00 PM,86.0,53.6,33,30.12,6.2,Variable,5.8,-,N/A,,Partly Cloudy,0,2013-03-05 12:00:00
3:00 PM,87.8,53.6,31,30.09,6.2,East,5.8,-,N/A,,Partly Cloudy,80,2013-03-05 13:00:00
4:00 PM,87.8,51.8,29,30.06,6.2,Variable,3.5,-,N/A,,Scattered Clouds,0,2013-03-05 14:00:00
5:00 PM,89.6,50.0,26,30.06,6.2,Variable,2.3,-,N/A,,Scattered Clouds,0,2013-03-05 15:00:00
6:00 PM,87.8,48.2,25,30.06,6.2,East,5.8,-,N/A,,Partly Cloudy,90,2013-03-05 16:00:00
7:00 PM,82.4,50.0,32,30.06,6.2,ENE,5.8,-,N/A,,Partly Cloudy,70,2013-03-05 17:00:00
8:00 PM,78.8,51.8,39,30.06,-9999.0,NNE,4.6,-,N/A,,Clear,30,2013-03-05 18:00:00
9:00 PM,73.4,62.6,69,30.09,-9999.0,SE,9.2,-,N/A,,Clear,130,2013-03-05 19:00:00
10:00 PM,75.2,53.6,47,30.09,-9999.0,North,2.3,-,N/A,,Clear,10,2013-03-05 20:00:00
11:00 PM,73.4,55.4,53,30.09,-9999.0,Variable,2.3,-,N/A,,Clear,0,2013-03-05 21:00:00